Weather History for Corlu, Turkey

Change the Weather History Date:

Monday, October 8, 2012

  Actual Average (LTBA) Record (LTBA)
Temperature  
Mean Temperature 63 °F -  
Max Temperature 69 °F 70 °F 78 °F (2011)
Min Temperature 57 °F 59 °F 46 °F (2013)
Degree Days  
Heating Degree Days 2    
Growing Degree Days 13 (Base 50)    
Moisture  
Dew Point 56 °F    
Average Humidity 79    
Maximum Humidity 100    
Minimum Humidity 52    
Precipitation  
Precipitation 0.00 in - - ()
Sea Level Pressure  
Sea Level Pressure 29.87 in    
Wind  
Wind Speed 7 mph ()    
Max Wind Speed 22 mph    
Max Gust Speed -    
Visibility 4.4 miles    
Events Fog , Rain    
Averages and records for this station are not official NWS values.
T = Trace of Precipitation, MM = Missing Value Source: Averaged Metar Reports

Daily Weather History Graph

Daily Weather History Graph

Search for Another Location

Airport:

Trip Planner

Search our weather history database for the weather conditions in past years. The results will help you decide how hot, cold, wet, or windy it might be!

Date:

Astronomy

Oct. 08, 2012 Rise Set
Actual Time 7:12 AM EEST 6:38 PM EEST
Civil Twilight 6:44 AM EEST 7:05 PM EEST
Nautical Twilight 6:13 AM EEST 7:37 PM EEST
Astronomical Twilight 5:41 AM EEST 8:09 PM EEST
Moon No Moon Rise 2:18 PM EEST (10/8)
Length of Visible Light 12h 20m
Length of Day
11h 25m
Waning Gibbous, 49% of the Moon is Illuminated
Oct 8
Waning Gibbous
Oct 15
New
Oct 22
First Quarter
Oct 29
Full
Nov 7
Last Quarter

Hourly Weather History & Observations

Time (EEST) Temp. Dew Point Humidity Pressure Visibility Wind Dir Wind Speed Gust Speed Precip Events Conditions
12:50 AM 62.6 °F 60.8 °F 94% 29.86 in - NNW 3.5 mph - N/A   Clear
1:20 AM 60.8 °F 59.0 °F 94% 29.86 in - West 2.3 mph - N/A   Clear
1:50 AM 59.0 °F 57.2 °F 94% 29.86 in 4.3 mi WSW 4.6 mph - N/A   Unknown
2:20 AM 59.0 °F 59.0 °F 100% 29.86 in 2.5 mi WSW 2.3 mph - N/A   Mist
3:20 AM 59.0 °F 59.0 °F 100% 29.83 in 2.5 mi Calm Calm - N/A   Mist
3:50 AM 57.2 °F 55.4 °F 94% 29.83 in 0.5 mi SW 3.5 mph - N/A Fog Fog
4:20 AM 57.2 °F 57.2 °F 100% 29.80 in 2.5 mi WSW 4.6 mph - N/A Fog Patches of Fog
4:50 AM 57.2 °F 57.2 °F 100% 29.80 in 3.7 mi West 4.6 mph - N/A   Unknown
5:20 AM 57.2 °F 57.2 °F 100% 29.80 in 3.7 mi WSW 3.5 mph - N/A   Unknown
5:50 AM 59.0 °F 59.0 °F 100% 29.80 in 3.1 mi SW 3.5 mph - N/A   Mist
6:50 AM 60.8 °F 59.0 °F 94% 29.80 in 2.5 mi SSW 3.5 mph - N/A Fog Patches of Fog
7:20 AM 59.0 °F 57.2 °F 94% 29.80 in 2.5 mi West 4.6 mph - N/A Fog Patches of Fog
7:50 AM 59.0 °F 59.0 °F 100% 29.80 in 3.7 mi West 3.5 mph - N/A   Unknown
8:20 AM 60.8 °F 60.8 °F 100% 29.80 in 5.0 mi WSW 3.5 mph - N/A   Mostly Cloudy
8:50 AM 62.6 °F 60.8 °F 94% 29.83 in 5.0 mi West 4.6 mph - N/A   Mostly Cloudy
9:20 AM 64.4 °F 59.0 °F 83% 29.83 in 5.0 mi West 5.8 mph - N/A   Mostly Cloudy
9:50 AM 64.4 °F 59.0 °F 83% 29.83 in 6.2 mi WSW 5.8 mph - N/A   Mostly Cloudy
10:20 AM 66.2 °F 59.0 °F 78% 29.83 in 5.0 mi West 8.1 mph - N/A   Mostly Cloudy
10:50 AM 68.0 °F 60.8 °F 78% 29.83 in 5.0 mi West 8.1 mph - N/A   Mostly Cloudy
11:20 AM 68.0 °F 60.8 °F 78% 29.83 in 3.7 mi WNW 10.4 mph - N/A   Mostly Cloudy
11:50 AM 66.2 °F 62.6 °F 88% 29.83 in 2.5 mi WNW 9.2 mph - N/A   Drizzle
12:20 PM 68.0 °F 60.8 °F 78% 29.83 in 2.8 mi WNW 6.9 mph - N/A   Mostly Cloudy
12:50 PM 68.0 °F 60.8 °F 78% 29.83 in 3.7 mi WNW 9.2 mph - N/A Rain Light Rain Showers
1:20 PM 68.0 °F 59.0 °F 73% 29.86 in 3.7 mi NW 10.4 mph - N/A Rain Light Rain Showers
1:50 PM 69.8 °F 57.2 °F 64% 29.86 in 4.3 mi North 13.8 mph - N/A   Mostly Cloudy
2:20 PM 68.0 °F 59.0 °F 73% 29.86 in 4.3 mi NNW 9.2 mph - N/A   Mostly Cloudy
2:50 PM 68.0 °F 57.2 °F 68% 29.86 in 4.3 mi NE 10.4 mph - N/A Rain Light Rain Showers
3:20 PM 69.8 °F 57.2 °F 64% 29.86 in 4.3 mi NE 6.9 mph - N/A   Mostly Cloudy
3:50 PM 69.8 °F 55.4 °F 60% 29.86 in 4.3 mi NE 10.4 mph - N/A   Mostly Cloudy
4:20 PM 68.0 °F 53.6 °F 60% 29.86 in 4.3 mi NE 15.0 mph - N/A   Mostly Cloudy
4:50 PM 68.0 °F 53.6 °F 60% 29.86 in 5.0 mi NNE 17.3 mph - N/A   Mostly Cloudy
5:20 PM 66.2 °F 50.0 °F 56% 29.89 in 5.0 mi NNE 18.4 mph - N/A   Mostly Cloudy
5:50 PM 64.4 °F 50.0 °F 59% 29.89 in 5.0 mi NE 21.9 mph - N/A   Mostly Cloudy
6:20 PM 64.4 °F 46.4 °F 52% 29.92 in 5.0 mi NNE 20.7 mph - N/A   Mostly Cloudy
6:50 PM 62.6 °F 46.4 °F 55% 29.92 in 5.0 mi North 18.4 mph - N/A   Mostly Cloudy
7:20 PM 62.6 °F 46.4 °F 55% 29.92 in 5.0 mi NNE 19.6 mph - N/A   Mostly Cloudy
7:50 PM 62.6 °F 46.4 °F 55% 29.95 in 6.2 mi North 19.6 mph - N/A   Mostly Cloudy
8:20 PM 60.8 °F 50.0 °F 68% 29.95 in 6.2 mi NNE 13.8 mph - N/A   Mostly Cloudy
8:50 PM 60.8 °F 50.0 °F 68% 29.98 in 6.2 mi NNE 12.7 mph - N/A   Mostly Cloudy
9:20 PM 59.0 °F 50.0 °F 72% 29.98 in 6.2 mi NNE 10.4 mph - N/A   Mostly Cloudy
9:50 PM 59.0 °F 50.0 °F 72% 30.01 in 6.2 mi NE 9.2 mph - N/A   Mostly Cloudy
10:20 PM 57.2 °F 50.0 °F 77% 30.01 in 6.2 mi NE 10.4 mph - N/A   Mostly Cloudy
10:50 PM 57.2 °F 50.0 °F 77% 30.01 in 6.2 mi NNE 9.2 mph - N/A   Mostly Cloudy
11:20 PM 57.2 °F 50.0 °F 77% 30.01 in 6.2 mi NNE 11.5 mph - N/A   Mostly Cloudy
11:50 PM 57.2 °F 50.0 °F 77% 30.01 in 6.2 mi NNE 10.4 mph - N/A   Mostly Cloudy